owner,sensor,date,latitude,longitude,vertical_datum,wind_speed,wind_to_direction,wind_speed_of_gust,qcFlag 
TCOON,ioos:station:TCOON:009:1,2015-10-01T00:00:00Z,27.8398,-97.0727,0.0,2.4,103.0,3.9,'11111222,11111222,11111222' 
TCOON,ioos:station:TCOON:009:1,2015-10-01T00:06:00Z,27.8398,-97.0727,0.0,2.3,105.0,4.1,'11111222,11111222,11111222' 
TCOON,ioos:station:TCOON:009:1,2015-10-01T00:12:00Z,27.8398,-97.0727,0.0,2.3,105.0,4.1,'1111122,1111122,1111122' 
TCOON,ioos:station:TCOON:009:1,2015-10-01T00:18:00Z,27.8398,-97.0727,0.0,2.9,110.0,3.5,'11111222,11111222,11111222' 
TCOON,ioos:station:TCOON:009:1,2015-10-01T00:24:00Z,27.8398,-97.0727,0.0,2.9,109.0,3.7,'11111222,11111222,11111222' 
TCOON,ioos:station:TCOON:009:1,2015-10-01T00:30:00Z,27.8398,-97.0727,0.0,2.8,109.0,3.8,'11111222,11111222,11111222' 
TCOON,ioos:station:TCOON:009:1,2015-10-01T00:36:00Z,27.8398,-97.0727,0.0,2.9,111.0,3.7,'11111222,11111222,11111222' 
TCOON,ioos:station:TCOON:009:1,2015-10-01T00:42:00Z,27.8398,-97.0727,0.0,2.9,112.0,3.7,'11111222,11111222,11111222' 
TCOON,ioos:station:TCOON:009:1,2015-10-01T00:48:00Z,27.8398,-97.0727,0.0,2.7,111.0,3.9,'11111222,11111222,11111222' 
TCOON,ioos:station:TCOON:009:1,2015-10-01T00:54:00Z,27.8398,-97.0727,0.0,2.8,111.0,3.9,'11111222,11111222,11111222' 
TCOON,ioos:station:TCOON:009:1,2015-10-01T01:00:00Z,27.8398,-97.0727,0.0,2.2,106.0,3.6,'11111222,11111222,11111222' 
TCOON,ioos:station:TCOON:009:1,2015-10-01T01:06:00Z,27.8398,-97.0727,0.0,2.0,115.0,3.0,'11111222,11111222,11111222' 
TCOON,ioos:station:TCOON:009:1,2015-10-01T01:12:00Z,27.8398,-97.0727,0.0,2.0,115.0,3.0,'1111122,1111122,1111122' 
TCOON,ioos:station:TCOON:009:1,2015-10-01T01:18:00Z,27.8398,-97.0727,0.0,2.5,108.0,3.5,'11111222,11111222,11111222' 
TCOON,ioos:station:TCOON:009:1,2015-10-01T01:24:00Z,27.8398,-97.0727,0.0,2.0,109.0,3.1,'11111222,11111222,11111222' 
TCOON,ioos:station:TCOON:009:1,2015-10-01T01:30:00Z,27.8398,-97.0727,0.0,2.3,113.0,3.3,'11111222,11111222,11111222' 
TCOON,ioos:station:TCOON:009:1,2015-10-01T01:36:00Z,27.8398,-97.0727,0.0,2.4,108.0,3.1,'11111222,11111222,11111222' 
TCOON,ioos:station:TCOON:009:1,2015-10-01T01:42:00Z,27.8398,-97.0727,0.0,2.5,112.0,3.2,'11111222,11111222,11111222' 
TCOON,ioos:station:TCOON:009:1,2015-10-01T01:48:00Z,27.8398,-97.0727,0.0,2.3,111.0,3.1,'11111222,11111222,11111222' 
TCOON,ioos:station:TCOON:009:1,2015-10-01T01:54:00Z,27.8398,-97.0727,0.0,2.3,111.0,2.9,'11111222,11111222,11111222' 
TCOON,ioos:station:TCOON:009:1,2015-10-01T02:00:00Z,27.8398,-97.0727,0.0,2.2,108.0,2.9,'11111222,11111222,11111222' 
TCOON,ioos:station:TCOON:009:1,2015-10-01T02:06:00Z,27.8398,-97.0727,0.0,2.3,113.0,3.0,'11111222,11111222,11111222' 
TCOON,ioos:station:TCOON:009:1,2015-10-01T02:12:00Z,27.8398,-97.0727,0.0,2.3,113.0,3.0,'1111122,1111122,1111122' 
TCOON,ioos:station:TCOON:009:1,2015-10-01T02:18:00Z,27.8398,-97.0727,0.0,1.7,112.0,2.6,'11111222,11111222,11111222' 
TCOON,ioos:station:TCOON:009:1,2015-10-01T02:24:00Z,27.8398,-97.0727,0.0,2.0,115.0,2.5,'11111222,11111222,11111222' 
TCOON,ioos:station:TCOON:009:1,2015-10-01T02:30:00Z,27.8398,-97.0727,0.0,1.8,117.0,2.5,'11111222,11111222,11111222' 
TCOON,ioos:station:TCOON:009:1,2015-10-01T02:36:00Z,27.8398,-97.0727,0.0,1.5,115.0,2.3,'11111222,11111222,11111222' 
TCOON,ioos:station:TCOON:009:1,2015-10-01T02:42:00Z,27.8398,-97.0727,0.0,1.7,113.0,2.8,'11111222,11111222,11111222' 
TCOON,ioos:station:TCOON:009:1,2015-10-01T02:48:00Z,27.8398,-97.0727,0.0,1.8,112.0,2.4,'11111222,11111222,11111222' 
TCOON,ioos:station:TCOON:009:1,2015-10-01T02:54:00Z,27.8398,-97.0727,0.0,2.1,110.0,2.8,'11111222,11111222,11111222' 
TCOON,ioos:station:TCOON:009:1,2015-10-01T03:00:00Z,27.8398,-97.0727,0.0,1.7,110.0,2.4,'11111222,11111222,11111222' 
TCOON,ioos:station:TCOON:009:1,2015-10-01T03:06:00Z,27.8398,-97.0727,0.0,2.2,115.0,2.8,'11111222,11111222,11111222' 
TCOON,ioos:station:TCOON:009:1,2015-10-01T03:12:00Z,27.8398,-97.0727,0.0,2.1,113.0,2.7,'11111222,11111222,11111222' 
TCOON,ioos:station:TCOON:009:1,2015-10-01T03:18:00Z,27.8398,-97.0727,0.0,1.7,110.0,2.4,'11111222,11111222,11111222' 
TCOON,ioos:station:TCOON:009:1,2015-10-01T03:24:00Z,27.8398,-97.0727,0.0,1.7,110.0,2.4,'1111122,1111122,1111122' 
TCOON,ioos:station:TCOON:009:1,2015-10-01T03:30:00Z,27.8398,-97.0727,0.0,1.6,115.0,2.0,'11111222,11111222,11111222' 
TCOON,ioos:station:TCOON:009:1,2015-10-01T03:36:00Z,27.8398,-97.0727,0.0,1.4,125.0,1.8,'11111222,11111222,11111222' 
TCOON,ioos:station:TCOON:009:1,2015-10-01T03:42:00Z,27.8398,-97.0727,0.0,1.2,116.0,2.0,'11111222,11111222,11111222' 
TCOON,ioos:station:TCOON:009:1,2015-10-01T03:48:00Z,27.8398,-97.0727,0.0,1.6,127.0,2.1,'11111222,11111222,11111222' 
TCOON,ioos:station:TCOON:009:1,2015-10-01T03:54:00Z,27.8398,-97.0727,0.0,1.4,127.0,2.0,'11111222,11111222,11111222' 
TCOON,ioos:station:TCOON:009:1,2015-10-01T04:00:00Z,27.8398,-97.0727,0.0,1.1,129.0,1.7,'11111222,11111222,11111222' 
TCOON,ioos:station:TCOON:009:1,2015-10-01T04:06:00Z,27.8398,-97.0727,0.0,0.7,131.0,1.3,'11111222,11111222,11111222' 
TCOON,ioos:station:TCOON:009:1,2015-10-01T04:12:00Z,27.8398,-97.0727,0.0,0.7,131.0,1.3,'1111122,1111122,1111122' 
TCOON,ioos:station:TCOON:009:1,2015-10-01T04:18:00Z,27.8398,-97.0727,0.0,1.0,118.0,1.4,'11111222,11111222,11111222' 
TCOON,ioos:station:TCOON:009:1,2015-10-01T04:24:00Z,27.8398,-97.0727,0.0,1.1,118.0,1.3,'11111222,11111222,11111222' 
TCOON,ioos:station:TCOON:009:1,2015-10-01T04:30:00Z,27.8398,-97.0727,0.0,1.1,120.0,1.5,'11111222,11111222,11111222' 
TCOON,ioos:station:TCOON:009:1,2015-10-01T04:36:00Z,27.8398,-97.0727,0.0,1.2,116.0,1.5,'11111222,11111222,11111222' 
TCOON,ioos:station:TCOON:009:1,2015-10-01T04:42:00Z,27.8398,-97.0727,0.0,1.2,118.0,1.7,'11111222,11111222,11111222' 
TCOON,ioos:station:TCOON:009:1,2015-10-01T04:48:00Z,27.8398,-97.0727,0.0,1.2,116.0,1.7,'11111222,11111222,11111222' 
TCOON,ioos:station:TCOON:009:1,2015-10-01T04:54:00Z,27.8398,-97.0727,0.0,1.2,113.0,1.6,'11111222,11111222,11111222' 
TCOON,ioos:station:TCOON:009:1,2015-10-01T05:00:00Z,27.8398,-97.0727,0.0,1.2,106.0,1.5,'11111222,11111222,11111222' 
TCOON,ioos:station:TCOON:009:1,2015-10-01T05:06:00Z,27.8398,-97.0727,0.0,1.6,104.0,2.0,'11111222,11111222,11111222' 
TCOON,ioos:station:TCOON:009:1,2015-10-01T05:12:00Z,27.8398,-97.0727,0.0,1.7,104.0,2.1,'11111222,11111222,11111222' 
TCOON,ioos:station:TCOON:009:1,2015-10-01T05:18:00Z,27.8398,-97.0727,0.0,1.2,105.0,1.7,'11111222,11111222,11111222' 
TCOON,ioos:station:TCOON:009:1,2015-10-01T05:24:00Z,27.8398,-97.0727,0.0,1.3,106.0,1.7,'11111222,11111222,11111222' 
TCOON,ioos:station:TCOON:009:1,2015-10-01T05:30:00Z,27.8398,-97.0727,0.0,1.3,106.0,1.7,'1111122,1111122,1111122' 
TCOON,ioos:station:TCOON:009:1,2015-10-01T05:36:00Z,27.8398,-97.0727,0.0,1.3,110.0,1.9,'11111222,11111222,11111222' 
TCOON,ioos:station:TCOON:009:1,2015-10-01T05:42:00Z,27.8398,-97.0727,0.0,1.8,108.0,2.2,'11111222,11111222,11111222' 
TCOON,ioos:station:TCOON:009:1,2015-10-01T05:48:00Z,27.8398,-97.0727,0.0,1.5,108.0,1.9,'11111222,11111222,11111222' 
TCOON,ioos:station:TCOON:009:1,2015-10-01T05:54:00Z,27.8398,-97.0727,0.0,1.4,111.0,1.9,'11111222,11111222,11111222' 
TCOON,ioos:station:TCOON:009:1,2015-10-01T06:00:00Z,27.8398,-97.0727,0.0,1.1,110.0,2.0,'11111222,11111222,11111222' 
TCOON,ioos:station:TCOON:009:1,2015-10-01T06:06:00Z,27.8398,-97.0727,0.0,1.0,114.0,1.4,'11111222,11111222,11111222' 
TCOON,ioos:station:TCOON:009:1,2015-10-01T06:12:00Z,27.8398,-97.0727,0.0,1.0,120.0,1.3,'11111222,11111222,11111222' 
TCOON,ioos:station:TCOON:009:1,2015-10-01T06:18:00Z,27.8398,-97.0727,0.0,0.9,120.0,1.3,'11111222,11111222,11111222' 
TCOON,ioos:station:TCOON:009:1,2015-10-01T06:24:00Z,27.8398,-97.0727,0.0,0.9,120.0,1.3,'1111122,1111122,1111122' 
TCOON,ioos:station:TCOON:009:1,2015-10-01T06:30:00Z,27.8398,-97.0727,0.0,0.2,137.0,0.7,'11111222,11111222,11111222' 
TCOON,ioos:station:TCOON:009:1,2015-10-01T06:36:00Z,27.8398,-97.0727,0.0,0.0,128.0,0.5,'11111222,11111222,11111222' 
TCOON,ioos:station:TCOON:009:1,2015-10-01T06:42:00Z,27.8398,-97.0727,0.0,0.1,145.0,0.3,'11111222,11111222,11111222' 
TCOON,ioos:station:TCOON:009:1,2015-10-01T06:48:00Z,27.8398,-97.0727,0.0,0.4,137.0,0.7,'11111222,11111222,11111222' 
TCOON,ioos:station:TCOON:009:1,2015-10-01T06:54:00Z,27.8398,-97.0727,0.0,0.0,153.0,0.5,'11111222,11111222,11111222' 
TCOON,ioos:station:TCOON:009:1,2015-10-01T07:00:00Z,27.8398,-97.0727,0.0,0.4,158.0,0.4,'11111222,11111222,11111222' 
TCOON,ioos:station:TCOON:009:1,2015-10-01T07:06:00Z,27.8398,-97.0727,0.0,0.5,154.0,0.7,'11111222,11111222,11111222' 
TCOON,ioos:station:TCOON:009:1,2015-10-01T07:12:00Z,27.8398,-97.0727,0.0,0.0,171.0,0.7,'11111222,11111222,11111222' 
TCOON,ioos:station:TCOON:009:1,2015-10-01T07:18:00Z,27.8398,-97.0727,0.0,0.5,177.0,0.6,'11111222,11111222,11111222' 
TCOON,ioos:station:TCOON:009:1,2015-10-01T07:24:00Z,27.8398,-97.0727,0.0,0.4,201.0,0.5,'11111222,11111222,11111222' 
TCOON,ioos:station:TCOON:009:1,2015-10-01T07:30:00Z,27.8398,-97.0727,0.0,0.4,208.0,0.4,'11111222,11111222,11111222' 
TCOON,ioos:station:TCOON:009:1,2015-10-01T07:36:00Z,27.8398,-97.0727,0.0,0.4,213.0,0.4,'11111222,11111222,11111222' 
TCOON,ioos:station:TCOON:009:1,2015-10-01T07:42:00Z,27.8398,-97.0727,0.0,0.6,209.0,0.7,'11111222,11111222,11111222' 
TCOON,ioos:station:TCOON:009:1,2015-10-01T07:48:00Z,27.8398,-97.0727,0.0,0.7,219.0,0.7,'11111222,11111222,11111222' 
TCOON,ioos:station:TCOON:009:1,2015-10-01T07:54:00Z,27.8398,-97.0727,0.0,0.7,243.0,0.8,'11111222,11111222,11111222' 
TCOON,ioos:station:TCOON:009:1,2015-10-01T08:00:00Z,27.8398,-97.0727,0.0,1.0,245.0,1.2,'11111222,11111222,11111222' 
TCOON,ioos:station:TCOON:009:1,2015-10-01T08:06:00Z,27.8398,-97.0727,0.0,1.0,251.0,1.1,'11111222,11111222,11111222' 
TCOON,ioos:station:TCOON:009:1,2015-10-01T08:12:00Z,27.8398,-97.0727,0.0,0.8,255.0,1.1,'11111222,11111222,11111222' 
TCOON,ioos:station:TCOON:009:1,2015-10-01T08:18:00Z,27.8398,-97.0727,0.0,0.8,244.0,1.1,'11111222,11111222,11111222' 
TCOON,ioos:station:TCOON:009:1,2015-10-01T08:24:00Z,27.8398,-97.0727,0.0,0.8,244.0,1.1,'1111122,1111122,1111122' 
TCOON,ioos:station:TCOON:009:1,2015-10-01T08:30:00Z,27.8398,-97.0727,0.0,0.9,235.0,1.1,'11111222,11111222,11111222' 
TCOON,ioos:station:TCOON:009:1,2015-10-01T08:36:00Z,27.8398,-97.0727,0.0,0.5,218.0,1.1,'11111222,11111222,11111222' 
TCOON,ioos:station:TCOON:009:1,2015-10-01T08:42:00Z,27.8398,-97.0727,0.0,0.6,255.0,0.8,'11111222,11111222,11111222' 
TCOON,ioos:station:TCOON:009:1,2015-10-01T08:48:00Z,27.8398,-97.0727,0.0,0.4,256.0,0.7,'11111222,11111222,11111222' 
TCOON,ioos:station:TCOON:009:1,2015-10-01T08:54:00Z,27.8398,-97.0727,0.0,0.1,252.0,0.6,'11111222,11111222,11111222' 
TCOON,ioos:station:TCOON:009:1,2015-10-01T09:00:00Z,27.8398,-97.0727,0.0,0.5,275.0,0.9,'11111222,11111222,11111222' 
TCOON,ioos:station:TCOON:009:1,2015-10-01T09:06:00Z,27.8398,-97.0727,0.0,1.6,297.0,2.3,'11111222,11111222,11111222' 
TCOON,ioos:station:TCOON:009:1,2015-10-01T09:12:00Z,27.8398,-97.0727,0.0,1.8,327.0,2.1,'11111222,11111222,11111222' 
TCOON,ioos:station:TCOON:009:1,2015-10-01T09:18:00Z,27.8398,-97.0727,0.0,1.5,325.0,2.0,'11111222,11111222,11111222' 
TCOON,ioos:station:TCOON:009:1,2015-10-01T09:24:00Z,27.8398,-97.0727,0.0,1.5,325.0,2.0,'1111122,1111122,1111122' 
TCOON,ioos:station:TCOON:009:1,2015-10-01T09:30:00Z,27.8398,-97.0727,0.0,1.2,316.0,1.8,'11111222,11111222,11111222' 
TCOON,ioos:station:TCOON:009:1,2015-10-01T09:36:00Z,27.8398,-97.0727,0.0,1.8,308.0,2.4,'11111222,11111222,11111222' 
TCOON,ioos:station:TCOON:009:1,2015-10-01T09:42:00Z,27.8398,-97.0727,0.0,1.6,309.0,2.3,'11111222,11111222,11111222' 
TCOON,ioos:station:TCOON:009:1,2015-10-01T09:48:00Z,27.8398,-97.0727,0.0,1.6,302.0,2.2,'11111222,11111222,11111222' 
TCOON,ioos:station:TCOON:009:1,2015-10-01T09:54:00Z,27.8398,-97.0727,0.0,2.0,295.0,2.1,'11111222,11111222,11111222' 
TCOON,ioos:station:TCOON:009:1,2015-10-01T10:00:00Z,27.8398,-97.0727,0.0,2.0,300.0,2.3,'11111222,11111222,11111222' 
TCOON,ioos:station:TCOON:009:1,2015-10-01T10:06:00Z,27.8398,-97.0727,0.0,2.0,297.0,2.3,'11111222,11111222,11111222' 
TCOON,ioos:station:TCOON:009:1,2015-10-01T10:12:00Z,27.8398,-97.0727,0.0,2.2,295.0,2.6,'11111222,11111222,11111222' 
TCOON,ioos:station:TCOON:009:1,2015-10-01T10:18:00Z,27.8398,-97.0727,0.0,2.4,291.0,2.8,'11111222,11111222,11111222' 
TCOON,ioos:station:TCOON:009:1,2015-10-01T10:24:00Z,27.8398,-97.0727,0.0,2.4,291.0,2.8,'1111122,1111122,1111122' 
TCOON,ioos:station:TCOON:009:1,2015-10-01T10:30:00Z,27.8398,-97.0727,0.0,3.1,295.0,3.4,'11111222,11111222,11111222' 
TCOON,ioos:station:TCOON:009:1,2015-10-01T10:36:00Z,27.8398,-97.0727,0.0,2.7,295.0,3.4,'11111222,11111222,11111222' 
TCOON,ioos:station:TCOON:009:1,2015-10-01T10:42:00Z,27.8398,-97.0727,0.0,3.0,294.0,3.7,'11111222,11111222,11111222' 
TCOON,ioos:station:TCOON:009:1,2015-10-01T10:48:00Z,27.8398,-97.0727,0.0,3.0,298.0,3.6,'11111222,11111222,11111222' 
TCOON,ioos:station:TCOON:009:1,2015-10-01T10:54:00Z,27.8398,-97.0727,0.0,3.0,299.0,3.5,'11111222,11111222,11111222' 
TCOON,ioos:station:TCOON:009:1,2015-10-01T11:00:00Z,27.8398,-97.0727,0.0,3.3,301.0,3.8,'11111222,11111222,11111222' 
TCOON,ioos:station:TCOON:009:1,2015-10-01T11:06:00Z,27.8398,-97.0727,0.0,3.5,306.0,4.1,'11111222,11111222,11111222' 
TCOON,ioos:station:TCOON:009:1,2015-10-01T11:12:00Z,27.8398,-97.0727,0.0,3.5,306.0,4.1,'1111122,1111122,1111122' 
TCOON,ioos:station:TCOON:009:1,2015-10-01T11:18:00Z,27.8398,-97.0727,0.0,2.5,305.0,3.8,'11111222,11111222,11111222' 
TCOON,ioos:station:TCOON:009:1,2015-10-01T11:24:00Z,27.8398,-97.0727,0.0,3.1,305.0,3.5,'11111222,11111222,11111222' 
TCOON,ioos:station:TCOON:009:1,2015-10-01T11:30:00Z,27.8398,-97.0727,0.0,3.2,307.0,3.9,'11111222,11111222,11111222' 
TCOON,ioos:station:TCOON:009:1,2015-10-01T11:36:00Z,27.8398,-97.0727,0.0,2.8,307.0,3.7,'11111222,11111222,11111222' 
TCOON,ioos:station:TCOON:009:1,2015-10-01T11:42:00Z,27.8398,-97.0727,0.0,3.3,307.0,3.9,'11111222,11111222,11111222' 
TCOON,ioos:station:TCOON:009:1,2015-10-01T11:48:00Z,27.8398,-97.0727,0.0,3.0,306.0,4.3,'11111222,11111222,11111222' 
TCOON,ioos:station:TCOON:009:1,2015-10-01T11:54:00Z,27.8398,-97.0727,0.0,2.9,310.0,4.0,'11111222,11111222,11111222' 
TCOON,ioos:station:TCOON:009:1,2015-10-01T12:00:00Z,27.8398,-97.0727,0.0,2.4,310.0,3.8,'11111222,11111222,11111222' 
TCOON,ioos:station:TCOON:009:1,2015-10-01T12:06:00Z,27.8398,-97.0727,0.0,2.3,312.0,3.5,'11111222,11111222,11111222' 
TCOON,ioos:station:TCOON:009:1,2015-10-01T12:12:00Z,27.8398,-97.0727,0.0,2.8,306.0,3.7,'11111222,11111222,11111222' 
TCOON,ioos:station:TCOON:009:1,2015-10-01T12:18:00Z,27.8398,-97.0727,0.0,2.8,306.0,3.7,'1111122,1111122,1111122' 
TCOON,ioos:station:TCOON:009:1,2015-10-01T12:24:00Z,27.8398,-97.0727,0.0,2.6,303.0,3.1,'11111222,11111222,11111222' 
TCOON,ioos:station:TCOON:009:1,2015-10-01T12:30:00Z,27.8398,-97.0727,0.0,2.6,305.0,3.1,'11111222,11111222,11111222' 
TCOON,ioos:station:TCOON:009:1,2015-10-01T12:36:00Z,27.8398,-97.0727,0.0,2.7,306.0,3.6,'11111222,11111222,11111222' 
TCOON,ioos:station:TCOON:009:1,2015-10-01T12:42:00Z,27.8398,-97.0727,0.0,2.7,313.0,3.3,'11111222,11111222,11111222' 
TCOON,ioos:station:TCOON:009:1,2015-10-01T12:48:00Z,27.8398,-97.0727,0.0,3.1,306.0,3.9,'11111222,11111222,11111222' 
TCOON,ioos:station:TCOON:009:1,2015-10-01T12:54:00Z,27.8398,-97.0727,0.0,2.8,306.0,3.6,'11111222,11111222,11111222' 
TCOON,ioos:station:TCOON:009:1,2015-10-01T13:00:00Z,27.8398,-97.0727,0.0,2.7,303.0,3.3,'11111222,11111222,11111222' 
TCOON,ioos:station:TCOON:009:1,2015-10-01T13:06:00Z,27.8398,-97.0727,0.0,2.9,309.0,3.4,'11111222,11111222,11111222' 
TCOON,ioos:station:TCOON:009:1,2015-10-01T13:12:00Z,27.8398,-97.0727,0.0,2.8,306.0,3.2,'11111222,11111222,11111222' 
TCOON,ioos:station:TCOON:009:1,2015-10-01T13:18:00Z,27.8398,-97.0727,0.0,2.8,306.0,3.2,'1111122,1111122,1111122' 
TCOON,ioos:station:TCOON:009:1,2015-10-01T13:24:00Z,27.8398,-97.0727,0.0,3.2,310.0,3.9,'11111222,11111222,11111222' 
TCOON,ioos:station:TCOON:009:1,2015-10-01T13:30:00Z,27.8398,-97.0727,0.0,3.3,307.0,4.1,'11111222,11111222,11111222' 
TCOON,ioos:station:TCOON:009:1,2015-10-01T13:36:00Z,27.8398,-97.0727,0.0,3.3,308.0,4.4,'11111222,11111222,11111222' 
TCOON,ioos:station:TCOON:009:1,2015-10-01T13:42:00Z,27.8398,-97.0727,0.0,3.6,317.0,4.2,'11111222,11111222,11111222' 
TCOON,ioos:station:TCOON:009:1,2015-10-01T13:48:00Z,27.8398,-97.0727,0.0,3.6,317.0,4.4,'11111222,11111222,11111222' 
TCOON,ioos:station:TCOON:009:1,2015-10-01T13:54:00Z,27.8398,-97.0727,0.0,2.9,312.0,4.7,'11111222,11111222,11111222' 
TCOON,ioos:station:TCOON:009:1,2015-10-01T14:00:00Z,27.8398,-97.0727,0.0,4.3,321.0,5.1,'11111222,11111222,11111222' 
TCOON,ioos:station:TCOON:009:1,2015-10-01T14:06:00Z,27.8398,-97.0727,0.0,4.1,324.0,4.6,'11111222,11111222,11111222' 
TCOON,ioos:station:TCOON:009:1,2015-10-01T14:12:00Z,27.8398,-97.0727,0.0,4.1,323.0,4.8,'11111222,11111222,11111222' 
TCOON,ioos:station:TCOON:009:1,2015-10-01T14:18:00Z,27.8398,-97.0727,0.0,4.3,321.0,5.3,'11111222,11111222,11111222' 
TCOON,ioos:station:TCOON:009:1,2015-10-01T14:24:00Z,27.8398,-97.0727,0.0,3.1,316.0,4.9,'11111222,11111222,11111222' 
TCOON,ioos:station:TCOON:009:1,2015-10-01T14:30:00Z,27.8398,-97.0727,0.0,3.8,324.0,4.7,'11111222,11111222,11111222' 
TCOON,ioos:station:TCOON:009:1,2015-10-01T14:36:00Z,27.8398,-97.0727,0.0,4.4,317.0,5.1,'11111222,11111222,11111222' 
TCOON,ioos:station:TCOON:009:1,2015-10-01T14:42:00Z,27.8398,-97.0727,0.0,4.4,317.0,5.1,'1111122,1111122,1111122' 
TCOON,ioos:station:TCOON:009:1,2015-10-01T14:48:00Z,27.8398,-97.0727,0.0,5.3,355.0,6.3,'11111222,11111222,11111222' 
TCOON,ioos:station:TCOON:009:1,2015-10-01T14:54:00Z,27.8398,-97.0727,0.0,4.9,353.0,6.1,'11111222,11111222,11111222' 
TCOON,ioos:station:TCOON:009:1,2015-10-01T15:00:00Z,27.8398,-97.0727,0.0,4.5,349.0,6.3,'11111222,11111222,11111222' 
TCOON,ioos:station:TCOON:009:1,2015-10-01T15:06:00Z,27.8398,-97.0727,0.0,3.9,344.0,7.4,'11111222,11111222,11111222' 
TCOON,ioos:station:TCOON:009:1,2015-10-01T15:12:00Z,27.8398,-97.0727,0.0,5.4,8.0,7.0,'11111222,11111222,11111222' 
TCOON,ioos:station:TCOON:009:1,2015-10-01T15:18:00Z,27.8398,-97.0727,0.0,4.2,339.0,6.2,'11111222,11111222,11111222' 
TCOON,ioos:station:TCOON:009:1,2015-10-01T15:24:00Z,27.8398,-97.0727,0.0,4.2,339.0,6.2,'1111122,1111122,1111122' 
TCOON,ioos:station:TCOON:009:1,2015-10-01T15:30:00Z,27.8398,-97.0727,0.0,3.8,346.0,6.1,'11111222,11111222,11111222' 
TCOON,ioos:station:TCOON:009:1,2015-10-01T15:36:00Z,27.8398,-97.0727,0.0,4.3,357.0,5.6,'11111222,11111222,11111222' 
TCOON,ioos:station:TCOON:009:1,2015-10-01T15:42:00Z,27.8398,-97.0727,0.0,4.8,351.0,6.2,'11111222,11111222,11111222' 
TCOON,ioos:station:TCOON:009:1,2015-10-01T15:48:00Z,27.8398,-97.0727,0.0,3.8,1.0,5.2,'11111222,11111222,11111222' 
TCOON,ioos:station:TCOON:009:1,2015-10-01T15:54:00Z,27.8398,-97.0727,0.0,3.4,335.0,5.5,'11111222,11111222,11111222' 
TCOON,ioos:station:TCOON:009:1,2015-10-01T16:00:00Z,27.8398,-97.0727,0.0,3.7,346.0,4.9,'11111222,11111222,11111222' 
TCOON,ioos:station:TCOON:009:1,2015-10-01T16:06:00Z,27.8398,-97.0727,0.0,4.2,9.0,5.2,'11111222,11111222,11111222' 
TCOON,ioos:station:TCOON:009:1,2015-10-01T16:12:00Z,27.8398,-97.0727,0.0,3.5,10.0,5.5,'11111222,11111222,11111222' 
TCOON,ioos:station:TCOON:009:1,2015-10-01T16:18:00Z,27.8398,-97.0727,0.0,3.5,10.0,5.5,'1111122,1111122,1111122' 
TCOON,ioos:station:TCOON:009:1,2015-10-01T16:24:00Z,27.8398,-97.0727,0.0,3.6,15.0,4.6,'11111222,11111222,11111222' 
TCOON,ioos:station:TCOON:009:1,2015-10-01T16:30:00Z,27.8398,-97.0727,0.0,3.2,10.0,4.0,'11111222,11111222,11111222' 
TCOON,ioos:station:TCOON:009:1,2015-10-01T16:36:00Z,27.8398,-97.0727,0.0,3.3,349.0,4.9,'11111222,11111222,11111222' 
TCOON,ioos:station:TCOON:009:1,2015-10-01T16:42:00Z,27.8398,-97.0727,0.0,2.9,356.0,4.4,'11111222,11111222,11111222' 
TCOON,ioos:station:TCOON:009:1,2015-10-01T16:48:00Z,27.8398,-97.0727,0.0,3.4,358.0,4.8,'11111222,11111222,11111222' 
TCOON,ioos:station:TCOON:009:1,2015-10-01T16:54:00Z,27.8398,-97.0727,0.0,3.3,342.0,4.9,'11111222,11111222,11111222' 
TCOON,ioos:station:TCOON:009:1,2015-10-01T17:00:00Z,27.8398,-97.0727,0.0,4.1,7.0,5.0,'11111222,11111222,11111222' 
TCOON,ioos:station:TCOON:009:1,2015-10-01T17:06:00Z,27.8398,-97.0727,0.0,3.6,348.0,4.4,'11111222,11111222,11111222' 
TCOON,ioos:station:TCOON:009:1,2015-10-01T17:12:00Z,27.8398,-97.0727,0.0,3.3,332.0,4.0,'11111222,11111222,11111222' 
TCOON,ioos:station:TCOON:009:1,2015-10-01T17:18:00Z,27.8398,-97.0727,0.0,3.3,332.0,4.0,'1111122,1111122,1111122' 
TCOON,ioos:station:TCOON:009:1,2015-10-01T17:24:00Z,27.8398,-97.0727,0.0,2.9,355.0,3.7,'11111222,11111222,11111222' 
TCOON,ioos:station:TCOON:009:1,2015-10-01T17:30:00Z,27.8398,-97.0727,0.0,2.1,353.0,2.8,'11111222,11111222,11111222' 
TCOON,ioos:station:TCOON:009:1,2015-10-01T17:36:00Z,27.8398,-97.0727,0.0,2.3,4.0,4.3,'11111222,11111222,11111222' 
TCOON,ioos:station:TCOON:009:1,2015-10-01T17:42:00Z,27.8398,-97.0727,0.0,2.8,5.0,4.2,'11111222,11111222,11111222' 
TCOON,ioos:station:TCOON:009:1,2015-10-01T17:48:00Z,27.8398,-97.0727,0.0,2.9,13.0,4.4,'11111222,11111222,11111222' 
TCOON,ioos:station:TCOON:009:1,2015-10-01T17:54:00Z,27.8398,-97.0727,0.0,2.4,2.0,4.2,'11111222,11111222,11111222' 
TCOON,ioos:station:TCOON:009:1,2015-10-01T18:00:00Z,27.8398,-97.0727,0.0,2.8,44.0,3.6,'11111222,11111222,11111222' 
TCOON,ioos:station:TCOON:009:1,2015-10-01T18:06:00Z,27.8398,-97.0727,0.0,1.8,42.0,3.2,'11111222,11111222,11111222' 
TCOON,ioos:station:TCOON:009:1,2015-10-01T18:12:00Z,27.8398,-97.0727,0.0,3.1,58.0,3.7,'11111222,11111222,11111222' 
TCOON,ioos:station:TCOON:009:1,2015-10-01T18:18:00Z,27.8398,-97.0727,0.0,2.9,41.0,3.8,'11111222,11111222,11111222' 
TCOON,ioos:station:TCOON:009:1,2015-10-01T18:24:00Z,27.8398,-97.0727,0.0,2.9,41.0,3.8,'1111122,1111122,1111122' 
TCOON,ioos:station:TCOON:009:1,2015-10-01T18:30:00Z,27.8398,-97.0727,0.0,3.8,50.0,4.8,'11111222,11111222,11111222' 
TCOON,ioos:station:TCOON:009:1,2015-10-01T18:36:00Z,27.8398,-97.0727,0.0,3.2,47.0,4.1,'11111222,11111222,11111222' 
TCOON,ioos:station:TCOON:009:1,2015-10-01T18:42:00Z,27.8398,-97.0727,0.0,3.0,36.0,4.1,'11111222,11111222,11111222' 
TCOON,ioos:station:TCOON:009:1,2015-10-01T18:48:00Z,27.8398,-97.0727,0.0,3.4,47.0,4.1,'11111222,11111222,11111222' 
TCOON,ioos:station:TCOON:009:1,2015-10-01T18:54:00Z,27.8398,-97.0727,0.0,3.4,52.0,4.4,'11111222,11111222,11111222' 
TCOON,ioos:station:TCOON:009:1,2015-10-01T19:00:00Z,27.8398,-97.0727,0.0,2.1,74.0,4.4,'11111222,11111222,11111222' 
TCOON,ioos:station:TCOON:009:1,2015-10-01T19:06:00Z,27.8398,-97.0727,0.0,2.3,65.0,3.5,'11111222,11111222,11111222' 
TCOON,ioos:station:TCOON:009:1,2015-10-01T19:12:00Z,27.8398,-97.0727,0.0,2.6,53.0,3.6,'11111222,11111222,11111222' 
TCOON,ioos:station:TCOON:009:1,2015-10-01T19:18:00Z,27.8398,-97.0727,0.0,2.6,53.0,3.6,'1111122,1111122,1111122' 
TCOON,ioos:station:TCOON:009:1,2015-10-01T19:24:00Z,27.8398,-97.0727,0.0,1.9,51.0,3.4,'11111222,11111222,11111222' 
TCOON,ioos:station:TCOON:009:1,2015-10-01T19:30:00Z,27.8398,-97.0727,0.0,1.7,10.0,2.9,'11111222,11111222,11111222' 
TCOON,ioos:station:TCOON:009:1,2015-10-01T19:36:00Z,27.8398,-97.0727,0.0,2.9,87.0,3.5,'11111222,11111222,11111222' 
TCOON,ioos:station:TCOON:009:1,2015-10-01T19:42:00Z,27.8398,-97.0727,0.0,3.2,51.0,4.6,'11111222,11111222,11111222' 
TCOON,ioos:station:TCOON:009:1,2015-10-01T19:48:00Z,27.8398,-97.0727,0.0,4.1,63.0,6.0,'11111222,11111222,11111222' 
TCOON,ioos:station:TCOON:009:1,2015-10-01T19:54:00Z,27.8398,-97.0727,0.0,3.5,74.0,4.6,'11111222,11111222,11111222' 
TCOON,ioos:station:TCOON:009:1,2015-10-01T20:00:00Z,27.8398,-97.0727,0.0,3.6,84.0,4.6,'11111222,11111222,11111222' 
TCOON,ioos:station:TCOON:009:1,2015-10-01T20:06:00Z,27.8398,-97.0727,0.0,3.0,74.0,4.7,'11111222,11111222,11111222' 
TCOON,ioos:station:TCOON:009:1,2015-10-01T20:12:00Z,27.8398,-97.0727,0.0,3.0,74.0,4.6,'11111222,11111222,11111222' 
TCOON,ioos:station:TCOON:009:1,2015-10-01T20:18:00Z,27.8398,-97.0727,0.0,3.3,69.0,4.1,'11111222,11111222,11111222' 
TCOON,ioos:station:TCOON:009:1,2015-10-01T20:24:00Z,27.8398,-97.0727,0.0,3.3,69.0,4.1,'1111122,1111122,1111122' 